TVS1064 LTAC-UKLL

Flight info

Callsign TVS1064
Flight time 1h 54m
Altitude 36000
Route BUK M861 RAKUR/K0839F360 M861 KIV M860 INROG L981 KUSAK
Aircraft B38M/M-SDE1FGHILORVWXY/HB1

Departure

Time 2026-05-07 23:18
Airport Esenboğa International Airport (LTAC)

Arrival

Time 2026-05-08 01:13
Airport Lviv International Airport (UKLL)
Time Latitude Longitude Altitude Speed Heading
2026-05-07 22:52 40.11656 32.99232 3137 ft 0 kts 155°
2026-05-07 23:10 40.11672 32.99223 3137 ft 3 kts 155°
2026-05-07 23:10 40.11689 32.99213 3137 ft 3 kts 155°
2026-05-07 23:11 40.11706 32.99203 3137 ft 3 kts 155°
2026-05-07 23:11 40.11723 32.99193 3137 ft 3 kts 155°
2026-05-07 23:11 40.11732 32.99187 3137 ft 0 kts 155°
2026-05-07 23:14 40.11726 32.99188 3137 ft 1 kts 181°
2026-05-07 23:15 40.11718 32.99177 3137 ft 5 kts 224°
2026-05-07 23:15 40.11680 32.99112 3137 ft 13 kts 236°
2026-05-07 23:15 40.11608 32.98980 3136 ft 22 kts 229°
2026-05-07 23:15 40.11476 32.98822 3136 ft 30 kts 219°
2026-05-07 23:16 40.11294 32.98649 3136 ft 29 kts 217°
2026-05-07 23:16 40.11298 32.98531 3136 ft 14 kts 307°
2026-05-07 23:16 40.11361 32.98422 3135 ft 17 kts 307°
2026-05-07 23:16 40.11437 32.98292 3135 ft 19 kts 307°
2026-05-07 23:17 40.11521 32.98148 3136 ft 20 kts 307°
2026-05-07 23:17 40.11543 32.98134 3137 ft 0 kts 26°
2026-05-07 23:17 40.11587 32.98179 3137 ft 34 kts 39°
2026-05-07 23:17 40.11986 32.98566 3138 ft 108 kts 36°
2026-05-07 23:18 40.12770 32.99316 3139 ft 169 kts 37°
2026-05-07 23:18 40.13823 33.00290 3552 ft 193 kts 35°
2026-05-07 23:18 40.14956 33.01352 4407 ft 202 kts 37°
2026-05-07 23:18 40.16070 33.02468 5428 ft 201 kts 37°
2026-05-07 23:19 40.17196 33.03589 6191 ft 205 kts 37°
2026-05-07 23:19 40.18347 33.04730 6909 ft 212 kts 37°
2026-05-07 23:19 40.19560 33.05929 7461 ft 226 kts 36°
2026-05-07 23:19 40.20859 33.07210 8000 ft 241 kts 37°
2026-05-07 23:20 40.22239 33.08571 8587 ft 255 kts 37°
2026-05-07 23:20 40.23661 33.09973 9472 ft 255 kts 36°
2026-05-07 23:20 40.25166 33.11214 10327 ft 258 kts 20°
2026-05-07 23:20 40.26910 33.11700 11090 ft 257 kts 359°
2026-05-07 23:21 40.28684 33.11397 11844 ft 259 kts 343°
2026-05-07 23:21 40.30424 33.10764 12585 ft 262 kts 352°
2026-05-07 23:21 40.32243 33.10771 13378 ft 263 kts
2026-05-07 23:21 40.34087 33.10862 14061 ft 267 kts
2026-05-07 23:22 40.35951 33.10941 14743 ft 269 kts
2026-05-07 23:22 40.37858 33.11018 15200 ft 281 kts
2026-05-07 23:22 40.39835 33.11098 15541 ft 296 kts
2026-05-07 23:22 40.41954 33.11182 15829 ft 313 kts
2026-05-07 23:23 40.44188 33.11270 16083 ft 330 kts
2026-05-07 23:23 40.46544 33.11363 16311 ft 347 kts
2026-05-07 23:23 40.49019 33.11460 16496 ft 364 kts
2026-05-07 23:23 40.51613 33.11562 16669 ft 381 kts
2026-05-07 23:24 40.54322 33.11668 16803 ft 397 kts
2026-05-07 23:24 40.57125 33.11778 17130 ft 406 kts
2026-05-07 23:24 40.59950 33.11889 17785 ft 407 kts
2026-05-07 23:24 40.62795 33.12001 18334 ft 410 kts
2026-05-07 23:25 40.65656 33.12113 18834 ft 413 kts
2026-05-07 23:25 40.68533 33.12226 19361 ft 414 kts
2026-05-07 23:25 40.71418 33.12335 19880 ft 415 kts 359°
2026-05-07 23:25 40.74269 33.11843 20369 ft 415 kts 342°
2026-05-07 23:26 40.76908 33.10311 20899 ft 416 kts 333°
2026-05-07 23:26 40.79483 33.08547 21359 ft 418 kts 333°
2026-05-07 23:26 40.82061 33.06754 21857 ft 419 kts 332°
2026-05-07 23:26 40.84635 33.04942 22365 ft 420 kts 332°
2026-05-07 23:27 40.89808 33.01272 23302 ft 423 kts 332°
2026-05-07 23:27 40.92406 32.99425 23761 ft 425 kts 332°
2026-05-07 23:27 40.95017 32.97566 24126 ft 427 kts 332°
2026-05-07 23:28 40.97633 32.95701 24510 ft 428 kts 332°
2026-05-07 23:28 41.00261 32.93825 24873 ft 430 kts 332°
2026-05-07 23:28 41.02901 32.91942 25227 ft 432 kts 332°
2026-05-07 23:28 41.05548 32.90050 25576 ft 433 kts 332°
2026-05-07 23:29 41.08205 32.88148 25920 ft 435 kts 332°
2026-05-07 23:29 41.10873 32.86238 26281 ft 436 kts 332°
2026-05-07 23:29 41.13551 32.84319 26613 ft 438 kts 332°
2026-05-07 23:29 41.16235 32.82394 27011 ft 438 kts 332°
2026-05-07 23:30 41.18908 32.80474 27518 ft 435 kts 332°
2026-05-07 23:30 41.21562 32.78566 28021 ft 433 kts 332°
2026-05-07 23:30 41.24211 32.76661 28472 ft 432 kts 332°
2026-05-07 23:30 41.26845 32.74764 28938 ft 430 kts 333°
2026-05-07 23:31 41.29467 32.72874 29387 ft 428 kts 332°
2026-05-07 23:31 41.32076 32.70993 29826 ft 427 kts 332°
2026-05-07 23:31 41.33805 32.69744 30109 ft 426 kts 333°
2026-05-07 23:31 41.36403 32.67867 30489 ft 424 kts 332°
2026-05-07 23:32 41.38996 32.65992 30815 ft 424 kts 332°
2026-05-07 23:32 41.41589 32.64115 31159 ft 423 kts 332°
2026-05-07 23:32 41.44176 32.62241 31477 ft 423 kts 332°
2026-05-07 23:32 41.46754 32.60372 31816 ft 422 kts 332°
2026-05-07 23:33 41.49329 32.58503 32155 ft 421 kts 332°
2026-05-07 23:33 41.51907 32.56630 32470 ft 421 kts 332°
2026-05-07 23:33 41.54470 32.54766 32794 ft 420 kts 332°
2026-05-07 23:33 41.57034 32.52900 33104 ft 419 kts 332°
2026-05-07 23:34 41.59593 32.51036 33396 ft 419 kts 332°
2026-05-07 23:34 41.62150 32.49173 33709 ft 418 kts 332°
2026-05-07 23:34 41.64702 32.47310 34007 ft 418 kts 332°
2026-05-07 23:34 41.67182 32.45498 34256 ft 417 kts 332°
2026-05-07 23:35 41.69722 32.43641 34494 ft 417 kts 332°
2026-05-07 23:35 41.72268 32.41779 34711 ft 417 kts 332°
2026-05-07 23:35 41.74818 32.39911 34892 ft 418 kts 332°
2026-05-07 23:35 41.77376 32.38036 35100 ft 419 kts 332°
2026-05-07 23:36 41.79926 32.36165 35313 ft 419 kts 332°
2026-05-07 23:36 41.82485 32.34285 35504 ft 420 kts 332°
2026-05-07 23:36 41.85013 32.32427 35695 ft 420 kts 332°
2026-05-07 23:36 41.87577 32.30540 35885 ft 420 kts 332°
2026-05-07 23:37 41.90142 32.28651 36072 ft 421 kts 332°
2026-05-07 23:37 41.92710 32.26759 36139 ft 421 kts 332°
2026-05-07 23:37 41.97793 32.23007 36132 ft 414 kts 332°
2026-05-07 23:38 42.02830 32.19282 36129 ft 413 kts 332°
2026-05-07 23:38 42.07869 32.15549 36128 ft 413 kts 332°
2026-05-07 23:39 42.12911 32.11807 36128 ft 413 kts 331°
2026-05-07 23:39 42.17953 32.08058 36131 ft 414 kts 331°
2026-05-07 23:40 42.22986 32.04309 36133 ft 414 kts 331°
2026-05-07 23:40 42.25513 32.02424 36021 ft 413 kts 331°
2026-05-07 23:40 42.28023 32.00550 36105 ft 412 kts 331°
2026-05-07 23:41 42.33003 31.96826 36132 ft 411 kts 330°
2026-05-07 23:41 42.38046 31.93049 36132 ft 412 kts 330°
2026-05-07 23:42 42.43022 31.89315 36133 ft 412 kts 330°
2026-05-07 23:42 42.48035 31.85546 36130 ft 412 kts 330°
2026-05-07 23:43 42.53045 31.81773 36138 ft 412 kts 330°
2026-05-07 23:43 42.58058 31.77989 36135 ft 412 kts 330°
2026-05-07 23:44 42.63070 31.74200 36129 ft 412 kts 330°
2026-05-07 23:44 42.68086 31.70402 36133 ft 412 kts 330°
2026-05-07 23:45 42.73096 31.66600 36133 ft 413 kts 330°
2026-05-07 23:45 42.78115 31.62785 36137 ft 413 kts 330°
2026-05-07 23:46 42.83128 31.58967 36138 ft 413 kts 330°
2026-05-07 23:46 42.88143 31.55139 36131 ft 413 kts 330°
2026-05-07 23:47 42.93159 31.51305 36136 ft 413 kts 330°
2026-05-07 23:47 42.98140 31.47489 36136 ft 414 kts 330°
2026-05-07 23:48 43.03161 31.43636 36134 ft 414 kts 330°
2026-05-07 23:48 43.08178 31.39779 36138 ft 414 kts 330°
2026-05-07 23:49 43.13197 31.35913 36137 ft 414 kts 330°
2026-05-07 23:49 43.18219 31.32037 36146 ft 414 kts 330°
2026-05-07 23:50 43.23242 31.28153 36130 ft 415 kts 330°
2026-05-07 23:50 43.28267 31.24259 36144 ft 415 kts 330°
2026-05-07 23:51 43.33296 31.20356 36139 ft 415 kts 330°
2026-05-07 23:51 43.38328 31.16443 36139 ft 415 kts 330°
2026-05-07 23:52 43.43356 31.12525 36133 ft 416 kts 330°
2026-05-07 23:52 43.48390 31.08595 36146 ft 416 kts 330°
2026-05-07 23:53 43.53395 31.04679 36145 ft 416 kts 330°
2026-05-07 23:53 43.58436 31.00729 36147 ft 417 kts 329°
2026-05-07 23:54 43.63477 30.96770 36142 ft 417 kts 329°
2026-05-07 23:54 43.68518 30.92804 36143 ft 417 kts 329°
2026-05-07 23:55 43.73568 30.88823 36147 ft 418 kts 329°
2026-05-07 23:55 43.78614 30.84837 36144 ft 418 kts 329°
2026-05-07 23:56 43.83668 30.80837 36150 ft 418 kts 329°
2026-05-07 23:56 43.88714 30.76836 36142 ft 418 kts 329°
2026-05-07 23:57 43.93770 30.72819 36141 ft 419 kts 329°
2026-05-07 23:57 43.98830 30.68790 36132 ft 419 kts 329°
2026-05-07 23:58 44.03883 30.64760 36142 ft 419 kts 329°
2026-05-07 23:58 44.08938 30.60719 36144 ft 419 kts 329°
2026-05-07 23:59 44.13963 30.56694 36147 ft 420 kts 329°
2026-05-07 23:59 44.19027 30.52631 36135 ft 420 kts 329°
2026-05-08 00:00 44.24096 30.48555 36132 ft 420 kts 329°
2026-05-08 00:00 44.29163 30.44472 36140 ft 420 kts 329°
2026-05-08 00:01 44.34229 30.40382 36141 ft 421 kts 329°
2026-05-08 00:01 44.39297 30.36282 36134 ft 421 kts 329°
2026-05-08 00:02 44.44361 30.32177 36141 ft 421 kts 329°
2026-05-08 00:02 44.49423 30.28065 36146 ft 421 kts 329°
2026-05-08 00:03 44.54502 30.23932 36128 ft 422 kts 329°
2026-05-08 00:03 44.59542 30.19821 36131 ft 422 kts 329°
2026-05-08 00:04 44.64615 30.15676 36136 ft 422 kts 329°
2026-05-08 00:04 44.69694 30.11517 36136 ft 422 kts 329°
2026-05-08 00:05 44.74776 30.07347 36138 ft 423 kts 329°
2026-05-08 00:05 44.79854 30.03171 36140 ft 423 kts 329°
2026-05-08 00:06 44.84932 29.98987 36135 ft 423 kts 328°
2026-05-08 00:06 44.90018 29.94787 36131 ft 424 kts 328°
2026-05-08 00:07 44.95099 29.90584 36135 ft 424 kts 328°
2026-05-08 00:07 45.00153 29.86393 36131 ft 424 kts 328°
2026-05-08 00:08 45.05241 29.82166 36129 ft 424 kts 328°
2026-05-08 00:08 45.10327 29.77932 36134 ft 424 kts 328°
2026-05-08 00:09 45.15418 29.73685 36133 ft 425 kts 328°
2026-05-08 00:09 45.20511 29.69427 36119 ft 425 kts 328°
2026-05-08 00:10 45.25607 29.65157 36125 ft 425 kts 328°
2026-05-08 00:10 45.30704 29.60878 36130 ft 426 kts 328°
2026-05-08 00:11 45.35801 29.56590 36125 ft 426 kts 328°
2026-05-08 00:11 45.40902 29.52288 36123 ft 426 kts 328°
2026-05-08 00:12 45.46007 29.47976 36126 ft 427 kts 328°
2026-05-08 00:12 45.51114 29.43651 36122 ft 427 kts 328°
2026-05-08 00:13 45.56192 29.39343 36121 ft 427 kts 328°
2026-05-08 00:13 45.61298 29.35001 36123 ft 428 kts 327°
2026-05-08 00:14 45.66415 29.30640 36120 ft 428 kts 327°
2026-05-08 00:14 45.71529 29.26272 36120 ft 429 kts 327°
2026-05-08 00:15 45.76654 29.21887 36119 ft 429 kts 327°
2026-05-08 00:15 45.81785 29.17486 36116 ft 430 kts 327°
2026-05-08 00:16 45.86913 29.13078 36115 ft 430 kts 327°
2026-05-08 00:16 45.92041 29.08660 36116 ft 430 kts 327°
2026-05-08 00:17 45.97171 29.04232 36110 ft 430 kts 327°
2026-05-08 00:17 46.02299 28.99795 36114 ft 430 kts 327°
2026-05-08 00:18 46.07437 28.95340 36109 ft 431 kts 327°
2026-05-08 00:18 46.12570 28.90879 36108 ft 431 kts 326°
2026-05-08 00:19 46.17703 28.86408 36098 ft 431 kts 326°
2026-05-08 00:19 46.22833 28.81930 36105 ft 431 kts 326°
2026-05-08 00:20 46.27102 28.78198 36104 ft 431 kts 326°
2026-05-08 00:20 46.33071 28.72965 36102 ft 431 kts 326°
2026-05-08 00:21 46.37370 28.69188 36097 ft 431 kts 326°
2026-05-08 00:21 46.42498 28.64673 36094 ft 431 kts 326°
2026-05-08 00:22 46.47600 28.60173 36091 ft 432 kts 326°
2026-05-08 00:22 46.52728 28.55638 36092 ft 432 kts 326°
2026-05-08 00:23 46.57860 28.51090 36090 ft 432 kts 326°
2026-05-08 00:23 46.62987 28.46536 36089 ft 432 kts 326°
2026-05-08 00:24 46.68112 28.41974 36087 ft 432 kts 326°
2026-05-08 00:24 46.73246 28.37393 36087 ft 432 kts 326°
2026-05-08 00:25 46.78372 28.32810 36079 ft 432 kts 326°
2026-05-08 00:25 46.83502 28.28212 36080 ft 433 kts 326°
2026-05-08 00:26 46.88626 28.23608 36074 ft 432 kts 326°
2026-05-08 00:26 46.93750 28.18995 36072 ft 433 kts 326°
2026-05-08 00:27 46.98848 28.14394 36067 ft 433 kts 326°
2026-05-08 00:27 47.03980 28.09754 36058 ft 434 kts 325°
2026-05-08 00:28 47.09116 28.05098 36052 ft 434 kts 325°
2026-05-08 00:28 47.14251 28.00432 36040 ft 434 kts 325°
2026-05-08 00:29 47.19389 27.95753 36043 ft 435 kts 325°
2026-05-08 00:29 47.24536 27.91054 36029 ft 435 kts 325°
2026-05-08 00:30 47.29677 27.86351 36024 ft 436 kts 325°
2026-05-08 00:30 47.34832 27.81623 36026 ft 436 kts 325°
2026-05-08 00:31 47.39983 27.76889 36029 ft 436 kts 325°
2026-05-08 00:31 47.45138 27.72139 36027 ft 437 kts 325°
2026-05-08 00:32 47.50295 27.67377 36019 ft 437 kts 325°
2026-05-08 00:32 47.55456 27.62600 36024 ft 437 kts 324°
2026-05-08 00:33 47.60617 27.57811 36022 ft 438 kts 324°
2026-05-08 00:33 47.65748 27.53039 36024 ft 438 kts 324°
2026-05-08 00:34 47.70919 27.48221 36023 ft 439 kts 324°
2026-05-08 00:34 47.76087 27.43394 36020 ft 439 kts 324°
2026-05-08 00:35 47.81257 27.38554 36021 ft 439 kts 324°
2026-05-08 00:35 47.86428 27.33703 36018 ft 440 kts 324°
2026-05-08 00:36 47.91605 27.28834 36016 ft 440 kts 324°
2026-05-08 00:36 47.96782 27.23953 36012 ft 440 kts 324°
2026-05-08 00:37 48.01927 27.19091 36012 ft 440 kts 324°
2026-05-08 00:38 48.09695 27.11729 36014 ft 441 kts 324°
2026-05-08 00:38 48.14878 27.06802 36008 ft 441 kts 324°
2026-05-08 00:39 48.20061 27.01864 36008 ft 442 kts 324°
2026-05-08 00:39 48.25243 26.96914 36011 ft 442 kts 324°
2026-05-08 00:40 48.30427 26.91950 36007 ft 442 kts 324°
2026-05-08 00:40 48.35609 26.86977 36006 ft 442 kts 324°
2026-05-08 00:41 48.40651 26.81732 35992 ft 436 kts 311°
2026-05-08 00:41 48.42537 26.78220 36016 ft 430 kts 300°
2026-05-08 00:41 48.44206 26.74474 36004 ft 431 kts 300°
2026-05-08 00:42 48.47470 26.66878 36005 ft 431 kts 299°
2026-05-08 00:42 48.50674 26.59225 36002 ft 431 kts 299°
2026-05-08 00:43 48.53858 26.51557 36008 ft 431 kts 299°
2026-05-08 00:43 48.57015 26.43927 36001 ft 431 kts 298°
2026-05-08 00:44 48.60190 26.36234 36001 ft 431 kts 298°
2026-05-08 00:44 48.63362 26.28526 36002 ft 431 kts 298°
2026-05-08 00:45 48.66524 26.20819 36004 ft 431 kts 298°
2026-05-08 00:45 48.69681 26.13102 36003 ft 431 kts 298°
2026-05-08 00:46 48.72837 26.05366 36001 ft 431 kts 298°
2026-05-08 00:46 48.75989 25.97633 35998 ft 431 kts 298°
2026-05-08 00:47 48.79147 25.89896 36000 ft 431 kts 298°
2026-05-08 00:47 48.82299 25.82154 36002 ft 431 kts 298°
2026-05-08 00:48 48.85442 25.74409 35999 ft 431 kts 298°
2026-05-08 00:48 48.88581 25.66651 35999 ft 431 kts 298°
2026-05-08 00:49 48.91710 25.58890 36000 ft 430 kts 298°
2026-05-08 00:49 48.94826 25.51120 36007 ft 430 kts 297°
2026-05-08 00:50 48.97916 25.43395 36007 ft 430 kts 297°
2026-05-08 00:50 49.01022 25.35605 36007 ft 429 kts 297°
2026-05-08 00:51 49.04115 25.27828 36004 ft 429 kts 297°
2026-05-08 00:51 49.07204 25.20035 36001 ft 429 kts 297°
2026-05-08 00:52 49.10286 25.12240 35962 ft 426 kts 297°
2026-05-08 00:52 49.11798 25.08405 35322 ft 419 kts 296°
2026-05-08 00:52 49.13310 25.04563 34202 ft 424 kts 296°
2026-05-08 00:52 49.14836 25.00684 32945 ft 429 kts 296°
2026-05-08 00:53 49.16381 24.96754 31666 ft 434 kts 296°
2026-05-08 00:53 49.17944 24.92767 30388 ft 440 kts 297°
2026-05-08 00:53 49.19526 24.88725 28902 ft 446 kts 297°
2026-05-08 00:53 49.21125 24.84633 27401 ft 451 kts 297°
2026-05-08 00:54 49.22740 24.80496 25913 ft 456 kts 297°
2026-05-08 00:54 49.24369 24.76316 24425 ft 460 kts 297°
2026-05-08 00:54 49.26011 24.72094 22994 ft 462 kts 297°
2026-05-08 00:54 49.27642 24.67898 21853 ft 454 kts 297°
2026-05-08 00:55 49.29234 24.63793 21004 ft 441 kts 297°
2026-05-08 00:55 49.30769 24.59829 20214 ft 427 kts 296°
2026-05-08 00:55 49.32275 24.55938 19109 ft 423 kts 296°
2026-05-08 00:55 49.33765 24.52082 18176 ft 416 kts 296°
2026-05-08 00:56 49.35286 24.48407 17091 ft 412 kts 300°
2026-05-08 00:56 49.36872 24.44729 16106 ft 404 kts 300°
2026-05-08 00:56 49.38380 24.41197 15141 ft 398 kts 300°
2026-05-08 00:56 49.39882 24.37666 14206 ft 392 kts 300°
2026-05-08 00:57 49.41359 24.34185 13213 ft 387 kts 300°
2026-05-08 00:57 49.42814 24.30751 12229 ft 381 kts 300°
2026-05-08 00:57 49.44250 24.27358 11230 ft 377 kts 300°
2026-05-08 00:57 49.45666 24.24007 10436 ft 369 kts 300°
2026-05-08 00:58 49.47036 24.20761 9867 ft 355 kts 300°
2026-05-08 00:58 49.48350 24.17643 9347 ft 340 kts 300°
2026-05-08 00:58 49.49550 24.14795 8924 ft 326 kts 300°
2026-05-08 00:58 49.50755 24.11930 8538 ft 312 kts 300°
2026-05-08 00:59 49.51906 24.09191 8198 ft 297 kts 300°
2026-05-08 00:59 49.52999 24.06586 7924 ft 282 kts 300°
2026-05-08 00:59 49.54050 24.04079 7408 ft 278 kts 300°
2026-05-08 00:59 49.55100 24.01574 6820 ft 277 kts 300°
2026-05-08 01:00 49.56137 23.99097 6296 ft 274 kts 301°
2026-05-08 01:00 49.57163 23.96645 5759 ft 270 kts 301°
2026-05-08 01:00 49.58201 23.94243 5194 ft 269 kts 307°
2026-05-08 01:00 49.59701 23.92596 4742 ft 266 kts 339°
2026-05-08 01:01 49.61484 23.92187 4517 ft 254 kts
2026-05-08 01:01 49.63171 23.92654 4329 ft 241 kts 17°
2026-05-08 01:01 49.64642 23.93819 3844 ft 241 kts 42°
2026-05-08 01:01 49.65570 23.95947 3345 ft 241 kts 72°
2026-05-08 01:02 49.65704 23.98471 3022 ft 231 kts 103°
2026-05-08 01:02 49.65109 24.00747 3012 ft 231 kts 127°
2026-05-08 01:02 49.64087 24.02670 3013 ft 234 kts 135°
2026-05-08 01:02 49.62997 24.04488 2970 ft 225 kts 136°
2026-05-08 01:03 49.61944 24.06174 2819 ft 212 kts 137°
2026-05-08 01:03 49.60901 24.07799 2824 ft 216 kts 138°
2026-05-08 01:03 49.59840 24.09426 2806 ft 212 kts 138°
2026-05-08 01:03 49.58801 24.11004 2792 ft 208 kts 138°
2026-05-08 01:04 49.57768 24.12560 2794 ft 208 kts 139°
2026-05-08 01:04 49.56744 24.14096 2784 ft 208 kts 139°
2026-05-08 01:04 49.55861 24.15853 2762 ft 211 kts 112°
2026-05-08 01:04 49.55785 24.18101 2757 ft 212 kts 73°
2026-05-08 01:05 49.56547 24.20022 2794 ft 213 kts 45°
2026-05-08 01:05 49.57578 24.21680 2816 ft 215 kts 45°
2026-05-08 01:05 49.58611 24.23341 2812 ft 214 kts 45°
2026-05-08 01:05 49.59802 24.24595 2765 ft 209 kts 13°
2026-05-08 01:06 49.61209 24.24551 2788 ft 202 kts 337°
2026-05-08 01:06 49.62350 24.23437 2835 ft 187 kts 315°
2026-05-08 01:06 49.63266 24.22170 2814 ft 166 kts 315°
2026-05-08 01:06 49.64087 24.21058 2818 ft 155 kts 314°
2026-05-08 01:07 49.64883 24.19927 2881 ft 156 kts 313°
2026-05-08 01:07 49.65669 24.18777 2860 ft 156 kts 312°
2026-05-08 01:07 49.66454 24.17616 2821 ft 156 kts 312°
2026-05-08 01:07 49.67238 24.16451 2805 ft 156 kts 312°
2026-05-08 01:08 49.67757 24.15678 2806 ft 156 kts 312°
2026-05-08 01:08 49.68803 24.14116 2810 ft 156 kts 312°
2026-05-08 01:08 49.69318 24.13343 2803 ft 156 kts 312°
2026-05-08 01:08 49.70100 24.12173 2805 ft 156 kts 312°
2026-05-08 01:09 49.70879 24.11005 2794 ft 156 kts 312°
2026-05-08 01:09 49.71655 24.09840 2797 ft 156 kts 312°
2026-05-08 01:09 49.72432 24.08674 2796 ft 156 kts 312°
2026-05-08 01:09 49.73209 24.07508 2798 ft 156 kts 312°
2026-05-08 01:10 49.73988 24.06339 2707 ft 156 kts 312°
2026-05-08 01:10 49.74761 24.05176 2533 ft 155 kts 312°
2026-05-08 01:10 49.75535 24.04015 2349 ft 155 kts 312°
2026-05-08 01:10 49.76306 24.02855 2148 ft 155 kts 312°
2026-05-08 01:11 49.77079 24.01694 1929 ft 155 kts 312°
2026-05-08 01:11 49.77851 24.00532 1736 ft 155 kts 313°
2026-05-08 01:11 49.78616 23.99382 1515 ft 155 kts 314°
2026-05-08 01:11 49.79391 23.98216 1301 ft 156 kts 314°
2026-05-08 01:12 49.80167 23.97046 1096 ft 155 kts 315°
2026-05-08 01:12 49.80863 23.96000 1066 ft 111 kts 316°
2026-05-08 01:12 49.81263 23.95405 1069 ft 59 kts 316°
2026-05-08 01:12 49.81543 23.94982 1066 ft 55 kts 315°
2026-05-08 01:13 49.81692 23.94815 1068 ft 12 kts 10°
2026-05-08 01:13 49.81764 23.94899 1068 ft 15 kts 49°
2026-05-08 01:13 49.81759 23.95032 1070 ft 14 kts 141°
2026-05-08 01:13 49.81670 23.95136 1068 ft 18 kts 137°
2026-05-08 01:14 49.81610 23.95226 1068 ft 10 kts 136°
2026-05-08 01:14 49.81586 23.95291 1068 ft 7 kts 88°
2026-05-08 01:14 49.81603 23.95373 1068 ft 11 kts 71°
2026-05-08 01:14 49.81608 23.95395 1068 ft 0 kts 68°